Pipestone, MN

6:41 PM CST on February 13, 2016 (GMT -0600)
Pipestone Municipal

Weather History for KPQN - March, 2014

Change the Weather History Date:

Sunday, March 9, 2014

  Actual Average Record
Temperature  
Mean Temperature 34 °F -  
Max Temperature 46 °F 30 °F 57 °F (2015)
Min Temperature 21 °F 15 °F -7 °F (2003)
Degree Days  
Heating Degree Days 32    
Moisture  
Dew Point 29 °F    
Average Humidity 78    
Maximum Humidity 87    
Minimum Humidity 66    
Precipitation  
Precipitation 0.27 in - - ()
Sea Level Pressure  
Sea Level Pressure 29.81 in    
Wind  
Wind Speed 13 mph (SW)    
Max Wind Speed 21 mph    
Max Gust Speed -    
Visibility 10 miles    
Events      
Averages and records for this station are not official NWS values.
T = Trace of Precipitation, MM = Missing Value Source: NWS Daily Summary

Daily Weather History Graph

Daily Weather History Graph

Search for Another Location

Airport or City:

Trip Planner

Search our weather history database for the weather conditions in past years. The results will help you decide how hot, cold, wet, or windy it might be!

Date:

Astronomy

Mar. 09, 2014 Rise Set
Actual Time 7:48 AM CDT 7:23 PM CDT
Civil Twilight 7:19 AM CDT 7:52 PM CDT
Nautical Twilight 6:46 AM CDT 8:26 PM CDT
Astronomical Twilight 6:12 AM CDT 8:59 PM CDT
Moon 1:08 PM CDT (3/9) 3:23 AM CDT (3/9)
Length of Visible Light 12h 33m
Length of Day
11h 35m
First Quarter, 61% of the Moon is Illuminated
Mar 9
First Quarter
Mar 16
Full
Mar 23
Last Quarter
Mar 30
New
Apr 7
First Quarter

Hourly Weather History & Observations

Time (CDT) Temp. Windchill Dew Point Humidity Pressure Visibility Wind Dir Wind Speed Gust Speed Precip Events Conditions
12:13 AM 21.2 °F 8.9 °F 15.8 °F 80% 30.09 in 10.0 mi SSW 12.7 mph - N/A   Clear
12:32 AM 21.2 °F 8.3 °F 15.8 °F 80% 30.08 in 10.0 mi SSW 13.8 mph - N/A   Clear
12:53 AM 21.2 °F 7.8 °F 15.8 °F 80% 30.07 in 10.0 mi SSW 15.0 mph - N/A   Clear
1:13 AM 21.2 °F 7.8 °F 17.6 °F 86% 30.06 in 10.0 mi SSW 15.0 mph - N/A   Clear
1:32 AM 21.2 °F 7.3 °F 17.6 °F 86% 30.05 in 10.0 mi SSW 16.1 mph - N/A   Clear
1:53 AM 21.2 °F 7.3 °F 17.6 °F 86% 30.04 in 10.0 mi SSW 16.1 mph - N/A   Clear
3:13 AM 23.0 °F 10.6 °F 17.6 °F 80% 30.03 in 10.0 mi SSW 13.8 mph - N/A   Clear
3:33 AM 23.0 °F 9.2 °F 17.6 °F 80% 30.01 in 10.0 mi SSW 17.3 mph - N/A   Clear
3:53 AM 23.0 °F 9.6 °F 17.6 °F 80% 29.99 in 10.0 mi SSW 16.1 mph - N/A   Clear
4:13 AM 24.8 °F 10.7 °F 19.4 °F 80% 29.97 in 10.0 mi SSW 19.6 mph - N/A   Clear
4:33 AM 24.8 °F 10.7 °F 19.4 °F 80% 29.96 in 10.0 mi SSW 19.6 mph - N/A   Clear
4:53 AM 26.6 °F 13.4 °F 21.2 °F 80% 29.95 in 10.0 mi SSW 18.4 mph - N/A   Clear
5:13 AM 26.6 °F 13.4 °F 21.2 °F 80% 29.94 in 10.0 mi SSW 18.4 mph - N/A   Clear
5:33 AM 26.6 °F 13.4 °F 21.2 °F 80% 29.93 in 10.0 mi SSW 18.4 mph - N/A   Clear
5:53 AM 26.6 °F 14.3 °F 21.2 °F 80% 29.92 in 10.0 mi SSW 16.1 mph - N/A   Clear
6:13 AM 28.4 °F 15.8 °F 23.0 °F 80% 29.90 in 10.0 mi SSW 18.4 mph - N/A   Clear
6:33 AM 28.4 °F 15.1 °F 23.0 °F 80% 29.88 in 10.0 mi SSW 20.7 mph - N/A   Clear
6:53 AM 30.2 °F 17.8 °F 24.8 °F 80% 29.88 in 10.0 mi SSW 19.6 mph - N/A   Clear
7:13 AM 30.2 °F 18.5 °F 24.8 °F 80% 29.87 in 10.0 mi SSW 17.3 mph - N/A   Clear
7:33 AM 30.2 °F 18.9 °F 24.8 °F 80% 29.87 in 10.0 mi SSW 16.1 mph - N/A   Clear
7:53 AM 30.2 °F 18.5 °F 24.8 °F 80% 29.86 in 10.0 mi SSW 17.3 mph - N/A   Clear
8:13 AM 28.4 °F 16.6 °F 24.8 °F 86% 29.85 in 10.0 mi SSW 16.1 mph - N/A   Clear
8:33 AM 28.4 °F 17.0 °F 24.8 °F 86% 29.85 in 10.0 mi SSW 15.0 mph - N/A   Clear
8:53 AM 30.2 °F 19.8 °F 24.8 °F 80% 29.85 in 10.0 mi SW 13.8 mph - N/A   Clear
9:13 AM 30.2 °F 19.3 °F 24.8 °F 80% 29.83 in 10.0 mi SW 15.0 mph - N/A   Clear
9:33 AM 32.0 °F 22.5 °F 26.6 °F 80% 29.83 in 10.0 mi SW 12.7 mph - N/A   Clear
9:53 AM 32.0 °F 21.6 °F 26.6 °F 80% 29.82 in 10.0 mi SW 15.0 mph - N/A   Clear
10:13 AM 33.8 °F 24.8 °F 28.4 °F 81% 29.81 in 10.0 mi SW 12.7 mph - N/A   Clear
10:33 AM 35.6 °F 26.2 °F 28.4 °F 75% 29.80 in 10.0 mi SW 15.0 mph - N/A   Clear
10:53 AM 35.6 °F 27.1 °F 30.2 °F 81% 29.80 in 10.0 mi SW 12.7 mph - N/A   Clear
11:13 AM 35.6 °F 26.6 °F 30.2 °F 81% 29.79 in 10.0 mi SW 13.8 mph - 0.02 in   Clear
11:33 AM 37.4 °F 30.8 °F 30.2 °F 75% 29.79 in 10.0 mi SW 9.2 mph - N/A   Clear
11:53 AM 37.4 °F 30.3 °F 32.0 °F 81% 29.78 in 10.0 mi SW 10.4 mph - 0.02 in   Clear
12:13 PM 37.4 °F 30.8 °F 32.0 °F 81% 29.78 in 10.0 mi SW 9.2 mph - 0.03 in   Clear
12:33 PM 39.2 °F 33.0 °F 33.8 °F 81% 29.77 in 10.0 mi SW 9.2 mph - 0.04 in   Clear
12:53 PM 39.2 °F 32.5 °F 33.8 °F 81% 29.77 in 10.0 mi SW 10.4 mph - 0.05 in   Scattered Clouds
1:13 PM 41.0 °F 34.7 °F 33.8 °F 76% 29.76 in 10.0 mi WSW 10.4 mph - 0.04 in   Scattered Clouds
1:33 PM 39.2 °F 34.2 °F 33.8 °F 81% 29.76 in 10.0 mi WSW 6.9 mph - 0.04 in   Clear
1:53 PM 41.0 °F 34.3 °F 33.8 °F 76% 29.75 in 10.0 mi WSW 11.5 mph - 0.03 in   Clear
2:13 PM 41.0 °F 34.7 °F 33.8 °F 76% 29.74 in 10.0 mi WSW 10.4 mph - 0.04 in   Scattered Clouds
2:33 PM 41.0 °F 34.7 °F 35.6 °F 81% 29.74 in 10.0 mi WSW 10.4 mph - 0.03 in   Clear
2:53 PM 42.8 °F 36.6 °F 35.6 °F 76% 29.74 in 10.0 mi West 11.5 mph - 0.03 in   Clear
3:13 PM 42.8 °F 36.6 °F 35.6 °F 76% 29.73 in 10.0 mi WSW 11.5 mph - 0.03 in   Scattered Clouds
3:33 PM 42.8 °F 36.6 °F 35.6 °F 76% 29.73 in 10.0 mi WSW 11.5 mph - 0.04 in   Clear
3:53 PM 42.8 °F 37.0 °F 35.6 °F 76% 29.73 in 10.0 mi WSW 10.4 mph - 0.03 in   Clear
4:13 PM 42.8 °F 37.5 °F 35.6 °F 76% 29.73 in 10.0 mi WSW 9.2 mph - 0.03 in   Clear
4:33 PM 44.6 °F 39.2 °F 35.6 °F 71% 29.73 in 10.0 mi WSW 10.4 mph - 0.03 in   Clear
4:53 PM 42.8 °F 37.0 °F 35.6 °F 76% 29.72 in 10.0 mi WSW 10.4 mph - 0.02 in   Clear
5:13 PM 42.8 °F 37.5 °F 35.6 °F 76% 29.72 in 10.0 mi WSW 9.2 mph - 0.01 in   Clear
5:33 PM 42.8 °F 38.0 °F 35.6 °F 76% 29.72 in 10.0 mi WSW 8.1 mph - 0.01 in   Clear
5:53 PM 44.6 °F 41.4 °F 35.6 °F 71% 29.72 in 10.0 mi WSW 5.8 mph - N/A   Scattered Clouds
6:13 PM 42.8 °F 41.1 °F 35.6 °F 76% 29.73 in 10.0 mi SW 3.5 mph - 0.01 in   Clear
6:33 PM 42.8 °F 41.1 °F 35.6 °F 76% 29.72 in 10.0 mi SSW 3.5 mph - 0.01 in   Clear
6:53 PM 44.6 °F 43.1 °F 35.6 °F 71% 29.72 in 10.0 mi SSW 3.5 mph - 0.01 in   Clear
7:13 PM 46.4 °F - 35.6 °F 66% 29.73 in 10.0 mi Calm Calm - N/A   Clear
7:33 PM 44.6 °F - 35.6 °F 71% 29.73 in 10.0 mi Calm Calm - 0.01 in   Clear
7:53 PM 46.4 °F - 37.4 °F 71% 29.73 in 10.0 mi Calm Calm - N/A   Clear
8:13 PM 46.4 °F - 35.6 °F 66% 29.74 in 10.0 mi Calm Calm - 0.01 in   Clear
8:33 PM 42.8 °F 41.1 °F 35.6 °F 76% 29.73 in 10.0 mi SSW 3.5 mph - N/A   Clear
8:53 PM 39.2 °F 35.9 °F 33.8 °F 81% 29.73 in 10.0 mi WSW 4.6 mph - 0.01 in   Clear
9:13 PM 39.2 °F 35.9 °F 33.8 °F 81% 29.73 in 10.0 mi WSW 4.6 mph - N/A   Clear
9:33 PM 39.2 °F 37.0 °F 35.6 °F 87% 29.73 in 10.0 mi West 3.5 mph - 0.01 in   Clear
9:53 PM 39.2 °F 37.0 °F 35.6 °F 87% 29.72 in 10.0 mi WSW 3.5 mph - N/A   Clear
10:13 PM 42.8 °F - 33.8 °F 70% 29.72 in 10.0 mi Calm Calm - N/A   Clear
10:33 PM 41.0 °F - 33.8 °F 76% 29.73 in 10.0 mi Calm Calm - N/A   Clear
10:53 PM 42.8 °F - 33.8 °F 70% 29.72 in 10.0 mi Calm Calm - N/A   Clear
11:13 PM 39.2 °F 34.2 °F 33.8 °F 81% 29.72 in 10.0 mi SW 6.9 mph - N/A   Clear
11:34 PM 39.2 °F 34.2 °F 33.8 °F 81% 29.71 in 10.0 mi SW 6.9 mph - N/A   Clear
11:53 PM 39.2 °F 35.0 °F 33.8 °F 81% 29.71 in 10.0 mi SW 5.8 mph - N/A   Clear
12:13 AM 39.2 °F 35.9 °F 33.8 °F 81% 29.71 in 10.0 mi WSW 4.6 mph - N/A   Clear
12:34 AM 42.8 °F 38.0 °F 33.8 °F 70% 29.71 in 10.0 mi West 8.1 mph - N/A   Clear
12:53 AM 42.8 °F 37.5 °F 32.0 °F 66% 29.71 in 10.0 mi West 9.2 mph - N/A   Clear